TimeCDT,TemperatureF,Dew PointF,Humidity,Sea Level PressureIn,VisibilityMPH,Wind Direction,Wind SpeedMPH,Gust SpeedMPH,PrecipitationIn,Events,Conditions,WindDirDegrees,DateUTC
12:14 AM,28.4,21.2,74,30.06,10.0,WSW,4.6,-,N/A,,Clear,250,2012-10-07 05:14:00
12:33 AM,28.4,21.2,74,30.06,10.0,West,5.8,-,N/A,,Clear,260,2012-10-07 05:33:00
12:53 AM,28.4,21.2,74,30.06,10.0,West,5.8,-,N/A,,Clear,260,2012-10-07 05:53:00
1:14 AM,28.4,21.2,74,30.06,10.0,West,5.8,-,N/A,,Clear,270,2012-10-07 06:14:00
1:33 AM,28.4,21.2,74,30.05,10.0,West,6.9,-,N/A,,Clear,260,2012-10-07 06:33:00
1:54 AM,28.4,21.2,74,30.05,10.0,West,5.8,-,N/A,,Clear,260,2012-10-07 06:54:00
2:14 AM,28.4,21.2,74,30.05,10.0,West,5.8,-,N/A,,Clear,260,2012-10-07 07:14:00
2:33 AM,26.6,21.2,80,30.04,10.0,West,4.6,-,N/A,,Clear,270,2012-10-07 07:33:00
2:54 AM,26.6,21.2,80,30.04,10.0,West,6.9,-,N/A,,Clear,270,2012-10-07 07:54:00
3:14 AM,28.4,21.2,74,30.03,10.0,West,5.8,-,N/A,,Clear,270,2012-10-07 08:14:00
3:33 AM,26.6,21.2,80,30.02,10.0,West,9.2,-,N/A,,Clear,270,2012-10-07 08:33:00
3:54 AM,26.6,21.2,80,30.01,10.0,West,9.2,-,N/A,,Clear,270,2012-10-07 08:54:00
4:14 AM,26.6,21.2,80,30.01,10.0,West,8.1,-,N/A,,Clear,270,2012-10-07 09:14:00
4:33 AM,26.6,21.2,80,30.00,10.0,West,8.1,-,N/A,,Clear,270,2012-10-07 09:33:00
4:54 AM,28.4,21.2,74,30.00,10.0,West,9.2,-,N/A,,Clear,260,2012-10-07 09:54:00
5:14 AM,28.4,21.2,74,30.00,10.0,WSW,9.2,-,N/A,,Clear,250,2012-10-07 10:14:00
5:33 AM,28.4,21.2,74,30.00,10.0,West,8.1,-,N/A,,Clear,260,2012-10-07 10:33:00
5:54 AM,26.6,21.2,80,30.00,10.0,WSW,4.6,-,N/A,,Clear,250,2012-10-07 10:54:00
6:14 AM,26.6,21.2,80,29.99,10.0,WSW,4.6,-,N/A,,Clear,250,2012-10-07 11:14:00
6:33 AM,26.6,21.2,80,29.99,10.0,WSW,3.5,-,N/A,,Clear,250,2012-10-07 11:33:00
6:54 AM,26.6,21.2,80,29.98,10.0,WSW,3.5,-,N/A,,Clear,240,2012-10-07 11:54:00
7:13 AM,26.6,21.2,80,29.98,10.0,WSW,4.6,-,N/A,,Clear,250,2012-10-07 12:13:00
7:34 AM,26.6,21.2,80,29.98,10.0,WSW,4.6,-,N/A,,Clear,250,2012-10-07 12:34:00
7:54 AM,26.6,21.2,80,29.97,10.0,WSW,5.8,-,N/A,,Clear,250,2012-10-07 12:54:00
8:13 AM,28.4,21.2,74,29.97,10.0,WSW,4.6,-,N/A,,Clear,240,2012-10-07 13:13:00
8:34 AM,28.4,21.2,74,29.97,10.0,WSW,4.6,-,N/A,,Clear,240,2012-10-07 13:34:00
8:54 AM,30.2,21.2,69,29.97,10.0,WSW,4.6,-,N/A,,Clear,240,2012-10-07 13:54:00
9:13 AM,30.2,21.2,69,29.96,10.0,SW,4.6,-,N/A,,Clear,230,2012-10-07 14:13:00
9:34 AM,35.6,21.2,56,29.95,10.0,SW,4.6,-,N/A,,Clear,230,2012-10-07 14:34:00
9:54 AM,35.6,21.2,56,29.94,10.0,SW,9.2,-,N/A,,Clear,230,2012-10-07 14:54:00
10:13 AM,39.2,21.2,49,29.94,10.0,SW,8.1,-,N/A,,Clear,220,2012-10-07 15:13:00
10:34 AM,41.0,19.4,42,29.94,10.0,SW,8.1,-,N/A,,Clear,230,2012-10-07 15:34:00
10:54 AM,42.8,19.4,39,29.93,10.0,SSW,8.1,16.1,N/A,,Clear,210,2012-10-07 15:54:00
11:13 AM,44.6,17.6,34,29.92,10.0,SSW,9.2,18.4,N/A,,Clear,210,2012-10-07 16:13:00
11:34 AM,44.6,15.8,31,29.92,10.0,SSW,10.4,20.7,N/A,,Clear,200,2012-10-07 16:34:00
11:53 AM,44.6,14.0,29,29.91,10.0,SSW,10.4,19.6,N/A,,Clear,200,2012-10-07 16:53:00
12:14 PM,46.4,15.8,29,29.91,10.0,SW,6.9,18.4,N/A,,Clear,220,2012-10-07 17:14:00
12:34 PM,44.6,24.8,46,29.91,10.0,SSW,9.2,17.3,N/A,,Scattered Clouds,200,2012-10-07 17:34:00
12:53 PM,44.6,24.8,46,29.90,10.0,SSW,9.2,17.3,N/A,,Scattered Clouds,200,2012-10-07 17:53:00
1:14 PM,42.8,24.8,49,29.90,10.0,SSW,10.4,-,N/A,,Overcast,210,2012-10-07 18:14:00
1:34 PM,42.8,24.8,49,29.89,10.0,South,8.1,-,N/A,,Overcast,180,2012-10-07 18:34:00
1:53 PM,42.8,26.6,53,29.89,10.0,South,11.5,17.3,N/A,,Overcast,180,2012-10-07 18:53:00
2:14 PM,42.8,26.6,53,29.88,10.0,South,10.4,16.1,N/A,,Mostly Cloudy,190,2012-10-07 19:14:00
2:34 PM,44.6,26.6,49,29.87,10.0,South,8.1,-,N/A,,Scattered Clouds,180,2012-10-07 19:34:00
2:53 PM,44.6,24.8,46,29.87,10.0,SSW,10.4,-,N/A,,Mostly Cloudy,200,2012-10-07 19:53:00
3:14 PM,42.8,24.8,49,29.87,10.0,South,9.2,18.4,N/A,,Mostly Cloudy,190,2012-10-07 20:14:00
3:34 PM,42.8,24.8,49,29.86,10.0,SSW,8.1,-,N/A,,Scattered Clouds,200,2012-10-07 20:34:00
3:53 PM,42.8,24.8,49,29.86,10.0,South,5.8,-,N/A,,Scattered Clouds,190,2012-10-07 20:53:00
4:14 PM,42.8,23.0,46,29.85,10.0,South,8.1,-,N/A,,Scattered Clouds,180,2012-10-07 21:14:00
4:33 PM,42.8,24.8,49,29.85,10.0,South,6.9,-,N/A,,Clear,190,2012-10-07 21:33:00
4:54 PM,42.8,24.8,49,29.84,10.0,South,4.6,-,N/A,,Scattered Clouds,190,2012-10-07 21:54:00
5:13 PM,42.8,24.8,49,29.84,10.0,South,4.6,-,N/A,,Overcast,180,2012-10-07 22:13:00
5:33 PM,41.0,24.8,53,29.84,10.0,South,3.5,-,N/A,,Overcast,180,2012-10-07 22:33:00
5:54 PM,41.0,24.8,53,29.84,10.0,South,5.8,-,N/A,,Mostly Cloudy,190,2012-10-07 22:54:00
6:13 PM,41.0,24.8,53,29.84,10.0,SSW,8.1,-,N/A,,Overcast,200,2012-10-07 23:13:00
6:33 PM,39.2,24.8,56,29.84,10.0,SSW,8.1,-,N/A,,Overcast,200,2012-10-07 23:33:00
6:54 PM,39.2,24.8,56,29.84,10.0,SSW,5.8,-,N/A,,Overcast,200,2012-10-07 23:54:00
7:13 PM,39.2,24.8,56,29.84,10.0,SSW,4.6,-,N/A,,Overcast,200,2012-10-08 00:13:00
7:33 PM,39.2,23.0,52,29.84,10.0,SSW,5.8,-,N/A,,Mostly Cloudy,200,2012-10-08 00:33:00
7:54 PM,39.2,21.2,49,29.84,10.0,SSW,9.2,-,N/A,,Scattered Clouds,200,2012-10-08 00:54:00
8:14 PM,39.2,21.2,49,29.84,10.0,SSW,5.8,-,N/A,,Scattered Clouds,200,2012-10-08 01:14:00
8:34 PM,39.2,21.2,49,29.84,10.0,SSW,4.6,-,N/A,,Scattered Clouds,200,2012-10-08 01:34:00
8:53 PM,39.2,21.2,49,29.84,10.0,SSW,6.9,-,N/A,,Scattered Clouds,200,2012-10-08 01:53:00
9:14 PM,39.2,19.4,45,29.84,10.0,SSW,6.9,-,N/A,,Overcast,200,2012-10-08 02:14:00
9:33 PM,39.2,19.4,45,29.83,10.0,SSW,8.1,-,N/A,,Overcast,200,2012-10-08 02:33:00
9:54 PM,39.2,19.4,45,29.84,10.0,South,6.9,-,N/A,,Mostly Cloudy,190,2012-10-08 02:54:00
10:14 PM,39.2,19.4,45,29.83,10.0,SSW,8.1,-,N/A,,Scattered Clouds,200,2012-10-08 03:14:00
10:34 PM,39.2,17.6,42,29.83,10.0,SSW,9.2,16.1,N/A,,Overcast,200,2012-10-08 03:34:00
10:53 PM,39.2,17.6,42,29.82,10.0,SSW,9.2,-,N/A,,Overcast,200,2012-10-08 03:53:00
11:14 PM,39.2,19.4,45,29.82,10.0,SSW,9.2,16.1,N/A,,Overcast,200,2012-10-08 04:14:00
11:34 PM,39.2,19.4,45,29.81,10.0,SSW,6.9,16.1,N/A,,Overcast,200,2012-10-08 04:34:00
11:53 PM,37.4,19.4,48,29.81,10.0,SSW,8.1,-,N/A,,Mostly Cloudy,200,2012-10-08 04:53:00